Year,Month,Day,Hour,Minute,Value (Times are PST for temperature in C)
2013,04,16,00,00,9.90
2013,04,16,00,01,9.90
2013,04,16,00,02,9.90
2013,04,16,00,03,9.90
2013,04,16,00,04,9.90
2013,04,16,00,05,9.90
2013,04,16,00,06,9.90
2013,04,16,00,07,9.90
2013,04,16,00,08,9.90
2013,04,16,00,09,9.90
2013,04,16,00,10,9.80
2013,04,16,00,11,9.80
2013,04,16,00,12,9.70
2013,04,16,00,13,9.70
2013,04,16,00,14,9.60
2013,04,16,00,15,9.60
2013,04,16,00,16,9.50
2013,04,16,00,17,9.50
2013,04,16,00,18,9.50
2013,04,16,00,19,9.50
2013,04,16,00,20,9.40
2013,04,16,00,21,9.40
2013,04,16,00,22,9.40
2013,04,16,00,23,9.40
2013,04,16,00,24,9.40
2013,04,16,00,25,9.30
2013,04,16,00,26,9.30
2013,04,16,00,27,9.30
2013,04,16,00,28,9.30
2013,04,16,00,29,9.20
2013,04,16,00,30,9.20
2013,04,16,00,31,9.20
2013,04,16,00,32,9.20
2013,04,16,00,33,9.20
2013,04,16,00,34,9.10
2013,04,16,00,35,9.10
2013,04,16,00,36,9.20
2013,04,16,00,37,9.20
2013,04,16,00,38,9.20
2013,04,16,00,39,9.20
2013,04,16,00,40,9.20
2013,04,16,00,41,9.20
2013,04,16,00,42,9.20
2013,04,16,00,43,9.20
2013,04,16,00,44,9.20
2013,04,16,00,45,9.20
2013,04,16,00,46,9.20
2013,04,16,00,47,9.20
2013,04,16,00,48,9.20
2013,04,16,00,49,9.20
2013,04,16,00,50,9.20
2013,04,16,00,51,9.20
2013,04,16,00,52,9.20
2013,04,16,00,53,9.20
2013,04,16,00,54,9.10
2013,04,16,00,55,9.10
2013,04,16,00,56,9.10
2013,04,16,00,57,9.10
2013,04,16,00,58,9.10
2013,04,16,00,59,9.10
2013,04,16,01,00,9.10
2013,04,16,01,01,9.10
2013,04,16,01,02,9.10
2013,04,16,01,03,9.10
2013,04,16,01,04,9.10
2013,04,16,01,05,9.10
2013,04,16,01,06,9.10
2013,04,16,01,07,9.10
2013,04,16,01,08,9.10
2013,04,16,01,09,9.10
2013,04,16,01,10,9.10
2013,04,16,01,11,9.00
2013,04,16,01,12,9.00
2013,04,16,01,13,9.10
2013,04,16,01,14,9.00
2013,04,16,01,15,9.00
2013,04,16,01,16,9.00
2013,04,16,01,17,9.00
2013,04,16,01,18,9.10
2013,04,16,01,19,9.10
2013,04,16,01,20,9.10
2013,04,16,01,21,9.10
2013,04,16,01,22,9.10
2013,04,16,01,23,9.00
2013,04,16,01,24,9.00
2013,04,16,01,25,9.00
2013,04,16,01,26,9.00
2013,04,16,01,27,9.00
2013,04,16,01,28,9.00
2013,04,16,01,29,9.00
2013,04,16,01,30,9.00
2013,04,16,01,31,9.00
2013,04,16,01,32,9.00
2013,04,16,01,33,9.00
2013,04,16,01,34,9.00
2013,04,16,01,35,9.00
2013,04,16,01,36,9.00
2013,04,16,01,37,9.00
2013,04,16,01,38,9.00
2013,04,16,01,39,9.00
2013,04,16,01,40,8.90
2013,04,16,01,41,8.90
2013,04,16,01,42,8.90
2013,04,16,01,43,8.90
2013,04,16,01,44,8.90
2013,04,16,01,45,8.90
2013,04,16,01,46,8.90
2013,04,16,01,47,8.90
2013,04,16,01,48,8.90
2013,04,16,01,49,8.90
2013,04,16,01,50,8.90
2013,04,16,01,51,8.80
2013,04,16,01,52,8.80
2013,04,16,01,53,8.80
2013,04,16,01,54,8.80
2013,04,16,01,55,8.80
2013,04,16,01,56,8.80
2013,04,16,01,57,8.80
2013,04,16,01,58,8.80
2013,04,16,01,59,8.80
2013,04,16,02,00,8.80
2013,04,16,02,01,8.80
2013,04,16,02,02,8.80
2013,04,16,02,03,8.80
2013,04,16,02,04,8.80
2013,04,16,02,05,8.80
2013,04,16,02,06,8.80
2013,04,16,02,07,8.80
2013,04,16,02,08,8.80
2013,04,16,02,09,8.70
2013,04,16,02,10,8.70
2013,04,16,02,11,8.70
2013,04,16,02,12,8.70
2013,04,16,02,13,8.70
2013,04,16,02,14,8.60
2013,04,16,02,15,8.60
2013,04,16,02,16,8.60
2013,04,16,02,17,8.60
2013,04,16,02,18,8.60
2013,04,16,02,19,8.60
2013,04,16,02,20,8.60
2013,04,16,02,21,8.60
2013,04,16,02,22,8.60
2013,04,16,02,23,8.60
2013,04,16,02,24,8.60
2013,04,16,02,25,8.60
2013,04,16,02,26,8.50
2013,04,16,02,27,8.50
2013,04,16,02,28,8.50
2013,04,16,02,29,8.50
2013,04,16,02,30,8.40
2013,04,16,02,31,8.40
2013,04,16,02,32,8.40
2013,04,16,02,33,8.40
2013,04,16,02,34,8.40
2013,04,16,02,35,8.40
2013,04,16,02,36,8.40
2013,04,16,02,37,8.40
2013,04,16,02,38,8.40
2013,04,16,02,39,8.40
2013,04,16,02,40,8.40
2013,04,16,02,41,8.40
2013,04,16,02,42,8.40
2013,04,16,02,43,8.30
2013,04,16,02,44,8.30
2013,04,16,02,45,8.30
2013,04,16,02,46,8.30
2013,04,16,02,47,8.30
2013,04,16,02,48,8.30
2013,04,16,02,49,8.20
2013,04,16,02,50,8.20
2013,04,16,02,51,8.20
2013,04,16,02,52,8.20
2013,04,16,02,53,8.20
2013,04,16,02,54,8.20
2013,04,16,02,55,8.10
2013,04,16,02,56,8.10
2013,04,16,02,57,8.10
2013,04,16,02,58,8.10
2013,04,16,02,59,8.00
2013,04,16,03,00,8.00
2013,04,16,03,01,7.90
2013,04,16,03,02,7.90
2013,04,16,03,03,7.90
2013,04,16,03,04,7.90
2013,04,16,03,05,7.80
2013,04,16,03,06,7.80
2013,04,16,03,07,7.80
2013,04,16,03,08,7.80
2013,04,16,03,09,7.80
2013,04,16,03,10,7.70
2013,04,16,03,11,7.70
2013,04,16,03,12,7.70
2013,04,16,03,13,7.70
2013,04,16,03,14,7.70
2013,04,16,03,15,7.70
2013,04,16,03,16,7.70
2013,04,16,03,17,7.70
2013,04,16,03,18,7.70
2013,04,16,03,19,7.70
2013,04,16,03,20,7.70
2013,04,16,03,21,7.70
2013,04,16,03,22,7.70
2013,04,16,03,23,7.60
2013,04,16,03,24,7.60
2013,04,16,03,25,7.60
2013,04,16,03,26,7.60
2013,04,16,03,27,7.60
2013,04,16,03,28,7.50
2013,04,16,03,29,7.50
2013,04,16,03,30,7.50
2013,04,16,03,31,7.40
2013,04,16,03,32,7.40
2013,04,16,03,33,7.40
2013,04,16,03,34,7.40
2013,04,16,03,35,7.40
2013,04,16,03,36,7.40
2013,04,16,03,37,7.30
2013,04,16,03,38,7.30
2013,04,16,03,39,7.20
2013,04,16,03,40,7.20
2013,04,16,03,41,7.20
2013,04,16,03,42,7.20
2013,04,16,03,43,7.10
2013,04,16,03,44,7.10
2013,04,16,03,45,7.10
2013,04,16,03,46,7.00
2013,04,16,03,47,7.00
2013,04,16,03,48,6.90
2013,04,16,03,49,6.90
2013,04,16,03,50,6.90
2013,04,16,03,51,6.90
2013,04,16,03,52,6.90
2013,04,16,03,53,6.90
2013,04,16,03,54,6.90
2013,04,16,03,55,6.90
2013,04,16,03,56,6.90
2013,04,16,03,57,6.90
2013,04,16,03,58,6.80
2013,04,16,03,59,6.80
2013,04,16,04,00,6.80
2013,04,16,04,01,6.70
2013,04,16,04,02,6.70
2013,04,16,04,03,6.60
2013,04,16,04,04,6.60
2013,04,16,04,05,6.60
2013,04,16,04,06,6.60
2013,04,16,04,07,6.50
2013,04,16,04,08,6.50
2013,04,16,04,09,6.40
2013,04,16,04,10,6.40
2013,04,16,04,11,6.40
2013,04,16,04,12,6.40
2013,04,16,04,13,6.30
2013,04,16,04,14,6.30
2013,04,16,04,15,6.20
2013,04,16,04,16,6.20
2013,04,16,04,17,6.10
2013,04,16,04,18,6.00
2013,04,16,04,19,6.00
2013,04,16,04,20,5.90
2013,04,16,04,21,5.90
2013,04,16,04,22,5.90
2013,04,16,04,23,5.80
2013,04,16,04,24,5.80
2013,04,16,04,25,5.80
2013,04,16,04,26,5.80
2013,04,16,04,27,5.80
2013,04,16,04,28,5.80
2013,04,16,04,29,5.90
2013,04,16,04,30,5.90
2013,04,16,04,31,5.90
2013,04,16,04,32,5.90
2013,04,16,04,33,5.90
2013,04,16,04,34,5.90
2013,04,16,04,35,5.90
2013,04,16,04,36,5.90
2013,04,16,04,37,5.80
2013,04,16,04,38,5.80
2013,04,16,04,39,5.80
2013,04,16,04,40,5.90
2013,04,16,04,41,5.90
2013,04,16,04,42,5.90
2013,04,16,04,43,5.90
2013,04,16,04,44,5.90
2013,04,16,04,45,5.90
2013,04,16,04,46,5.90
2013,04,16,04,47,5.90
2013,04,16,04,48,5.80
2013,04,16,04,49,5.70
2013,04,16,04,50,5.60
2013,04,16,04,51,5.60
2013,04,16,04,52,5.50
2013,04,16,04,53,5.40
2013,04,16,04,54,5.30
2013,04,16,04,55,5.20
2013,04,16,04,56,5.20
2013,04,16,04,57,5.20
2013,04,16,04,58,5.20
2013,04,16,04,59,5.20
2013,04,16,05,00,5.20
2013,04,16,05,01,5.30
2013,04,16,05,02,5.30
2013,04,16,05,03,5.30
2013,04,16,05,04,5.40
2013,04,16,05,05,5.40
2013,04,16,05,06,5.40
2013,04,16,05,07,5.40
2013,04,16,05,08,5.40
2013,04,16,05,09,5.40
2013,04,16,05,10,5.30
2013,04,16,05,11,5.30
2013,04,16,05,12,5.20
2013,04,16,05,13,5.10
2013,04,16,05,14,5.10
2013,04,16,05,15,5.00
2013,04,16,05,16,4.90
2013,04,16,05,17,4.90
2013,04,16,05,18,4.80
2013,04,16,05,19,4.80
2013,04,16,05,20,4.70
2013,04,16,05,21,4.70
2013,04,16,05,22,4.70
2013,04,16,05,23,4.70
2013,04,16,05,24,4.70
2013,04,16,05,25,4.80
2013,04,16,05,26,4.90
2013,04,16,05,27,5.00
2013,04,16,05,28,5.00
2013,04,16,05,29,5.10
2013,04,16,05,30,5.10
2013,04,16,05,31,5.10
2013,04,16,05,32,5.20
2013,04,16,05,33,5.20
2013,04,16,05,34,5.20
2013,04,16,05,35,5.20
2013,04,16,05,36,5.20
2013,04,16,05,37,5.10
2013,04,16,05,38,5.00
2013,04,16,05,39,5.00
2013,04,16,05,40,4.90
2013,04,16,05,41,4.90
2013,04,16,05,42,4.90
2013,04,16,05,43,5.00
2013,04,16,05,44,5.10
2013,04,16,05,45,5.10
2013,04,16,05,46,5.10
2013,04,16,05,47,5.00
2013,04,16,05,48,5.00
2013,04,16,05,49,4.90
2013,04,16,05,50,4.90
2013,04,16,05,51,4.90
2013,04,16,05,52,4.90
2013,04,16,05,53,4.80
2013,04,16,05,54,4.80
2013,04,16,05,55,4.70
2013,04,16,05,56,4.70
2013,04,16,05,57,4.80
2013,04,16,05,58,4.90
2013,04,16,05,59,4.90
2013,04,16,06,00,5.00
2013,04,16,06,01,5.10
2013,04,16,06,02,5.10
2013,04,16,06,03,5.00
2013,04,16,06,04,5.00
2013,04,16,06,05,4.90
2013,04,16,06,06,4.90
2013,04,16,06,07,4.80
2013,04,16,06,08,4.70
2013,04,16,06,09,4.70
2013,04,16,06,10,4.80
2013,04,16,06,11,4.80
2013,04,16,06,12,4.80
2013,04,16,06,13,4.70
2013,04,16,06,14,4.70
2013,04,16,06,15,4.70
2013,04,16,06,16,4.70
2013,04,16,06,17,4.80
2013,04,16,06,18,4.80
2013,04,16,06,19,4.80
2013,04,16,06,20,4.80
2013,04,16,06,21,4.80
2013,04,16,06,22,4.90
2013,04,16,06,23,4.90
2013,04,16,06,24,5.00
2013,04,16,06,25,5.00
2013,04,16,06,26,4.90
2013,04,16,06,27,4.90
2013,04,16,06,28,4.90
2013,04,16,06,29,5.00
2013,04,16,06,30,5.00
2013,04,16,06,31,5.00
2013,04,16,06,32,4.90
2013,04,16,06,33,4.90
2013,04,16,06,34,4.90
2013,04,16,06,35,4.90
2013,04,16,06,36,4.90
2013,04,16,06,37,4.80
2013,04,16,06,38,4.80
2013,04,16,06,39,4.80
2013,04,16,06,40,4.70
2013,04,16,06,41,4.70
2013,04,16,06,42,4.70
2013,04,16,06,43,4.70
2013,04,16,06,44,4.70
2013,04,16,06,45,4.80
2013,04,16,06,46,4.80
2013,04,16,06,47,4.80
2013,04,16,06,48,4.90
2013,04,16,06,49,4.90
2013,04,16,06,50,4.90
2013,04,16,06,51,4.90
2013,04,16,06,52,4.90
2013,04,16,06,53,4.90
2013,04,16,06,54,4.80
2013,04,16,06,55,4.70
2013,04,16,06,56,4.70
2013,04,16,06,57,4.60
2013,04,16,06,58,4.50
2013,04,16,06,59,4.50
2013,04,16,07,00,4.40
2013,04,16,07,01,4.40
2013,04,16,07,02,4.40
2013,04,16,07,03,4.40
2013,04,16,07,04,4.40
2013,04,16,07,05,4.40
2013,04,16,07,06,4.40
2013,04,16,07,07,4.30
2013,04,16,07,08,4.40
2013,04,16,07,09,4.40
2013,04,16,07,10,4.50
2013,04,16,07,11,4.50
2013,04,16,07,12,4.60
2013,04,16,07,13,4.70
2013,04,16,07,14,4.80
2013,04,16,07,15,4.80
2013,04,16,07,16,4.90
2013,04,16,07,17,5.00
2013,04,16,07,18,5.10
2013,04,16,07,19,5.20
2013,04,16,07,20,5.20
2013,04,16,07,21,5.30
2013,04,16,07,22,5.30
2013,04,16,07,23,5.30
2013,04,16,07,24,5.30
2013,04,16,07,25,5.30
2013,04,16,07,26,5.40
2013,04,16,07,27,5.50
2013,04,16,07,28,5.60
2013,04,16,07,29,5.70
2013,04,16,07,30,5.70
2013,04,16,07,31,5.80
2013,04,16,07,32,5.90
2013,04,16,07,33,5.90
2013,04,16,07,34,6.00
2013,04,16,07,35,6.10
2013,04,16,07,36,6.20
2013,04,16,07,37,6.20
2013,04,16,07,38,6.30
2013,04,16,07,39,6.30
2013,04,16,07,40,6.30
2013,04,16,07,41,6.40
2013,04,16,07,42,6.40
2013,04,16,07,43,6.50
2013,04,16,07,44,6.50
2013,04,16,07,45,6.60
2013,04,16,07,46,6.60
2013,04,16,07,47,6.70
2013,04,16,07,48,6.70
2013,04,16,07,49,6.80
2013,04,16,07,50,6.90
2013,04,16,07,51,6.90
2013,04,16,07,52,7.00
2013,04,16,07,53,7.00
2013,04,16,07,54,7.10
2013,04,16,07,55,7.20
2013,04,16,07,56,7.20
2013,04,16,07,57,7.30
2013,04,16,07,58,7.30
2013,04,16,07,59,7.40
2013,04,16,08,00,7.50
2013,04,16,08,01,7.60
2013,04,16,08,02,7.60
2013,04,16,08,03,7.70
2013,04,16,08,04,7.80
2013,04,16,08,05,7.80
2013,04,16,08,06,7.90
2013,04,16,08,07,7.90
2013,04,16,08,08,8.00
2013,04,16,08,09,8.10
2013,04,16,08,10,8.10
2013,04,16,08,11,8.20
2013,04,16,08,12,8.20
2013,04,16,08,13,8.30
2013,04,16,08,14,8.30
2013,04,16,08,15,8.40
2013,04,16,08,16,8.40
2013,04,16,08,17,8.50
2013,04,16,08,18,8.50
2013,04,16,08,19,8.60
2013,04,16,08,20,8.60
2013,04,16,08,21,8.60
2013,04,16,08,22,8.70
2013,04,16,08,23,8.70
2013,04,16,08,24,8.70
2013,04,16,08,25,8.80
2013,04,16,08,26,8.80
2013,04,16,08,27,8.80
2013,04,16,08,28,8.80
2013,04,16,08,29,8.90
2013,04,16,08,30,8.90
2013,04,16,08,31,8.90
2013,04,16,08,32,8.90
2013,04,16,08,33,8.90
2013,04,16,08,34,9.00
2013,04,16,08,35,9.00
2013,04,16,08,36,9.00
2013,04,16,08,37,9.00
2013,04,16,08,38,9.00
2013,04,16,08,39,9.00
2013,04,16,08,40,9.00
2013,04,16,08,41,9.00
2013,04,16,08,42,9.10
2013,04,16,08,43,9.10
2013,04,16,08,44,9.10
2013,04,16,08,45,9.20
2013,04,16,08,46,9.20
2013,04,16,08,47,9.20
2013,04,16,08,48,9.20
2013,04,16,08,49,9.30
2013,04,16,08,50,9.30
2013,04,16,08,51,9.30
2013,04,16,08,52,9.30
2013,04,16,08,53,9.30
2013,04,16,08,54,9.40
2013,04,16,08,55,9.40
2013,04,16,08,56,9.40
2013,04,16,08,57,9.50
2013,04,16,08,58,9.50
2013,04,16,08,59,9.60
2013,04,16,09,00,9.60
2013,04,16,09,01,9.50
2013,04,16,09,02,9.50
2013,04,16,09,03,9.60
2013,04,16,09,04,9.60
2013,04,16,09,05,9.60
2013,04,16,09,06,9.60
2013,04,16,09,07,9.60
2013,04,16,09,08,9.70
2013,04,16,09,09,9.70
2013,04,16,09,10,9.80
2013,04,16,09,11,9.80
2013,04,16,09,12,9.80
2013,04,16,09,13,9.70
2013,04,16,09,14,9.70
2013,04,16,09,15,9.70
2013,04,16,09,16,9.80
2013,04,16,09,17,9.80
2013,04,16,09,18,9.80
2013,04,16,09,19,9.80
2013,04,16,09,20,9.80
2013,04,16,09,21,9.80
2013,04,16,09,22,9.80
2013,04,16,09,23,9.80
2013,04,16,09,24,9.80
2013,04,16,09,25,9.80
2013,04,16,09,26,9.80
2013,04,16,09,27,9.80
2013,04,16,09,28,9.70
2013,04,16,09,29,9.70
2013,04,16,09,30,9.70
2013,04,16,09,31,9.70
2013,04,16,09,32,9.70
2013,04,16,09,33,9.60
2013,04,16,09,34,9.60
2013,04,16,09,35,9.60
2013,04,16,09,36,9.60
2013,04,16,09,37,9.60
2013,04,16,09,38,9.60
2013,04,16,09,39,9.60
2013,04,16,09,40,9.70
2013,04,16,09,41,9.70
2013,04,16,09,42,9.70
2013,04,16,09,43,9.80
2013,04,16,09,44,9.80
2013,04,16,09,45,9.80
2013,04,16,09,46,9.80
2013,04,16,09,47,9.80
2013,04,16,09,48,9.80
2013,04,16,09,49,9.90
2013,04,16,09,50,9.90
2013,04,16,09,51,10.00
2013,04,16,09,52,10.10
2013,04,16,09,53,10.10
2013,04,16,09,54,10.10
2013,04,16,09,55,10.10
2013,04,16,09,56,10.10
2013,04,16,09,57,10.00
2013,04,16,09,58,10.10
2013,04,16,09,59,10.10
2013,04,16,10,00,10.10
2013,04,16,10,01,10.20
2013,04,16,10,02,10.30
2013,04,16,10,03,10.40
2013,04,16,10,04,10.40
2013,04,16,10,05,10.40
2013,04,16,10,06,10.50
2013,04,16,10,07,10.50
2013,04,16,10,08,10.60
2013,04,16,10,09,10.60
2013,04,16,10,10,10.50
2013,04,16,10,11,10.50
2013,04,16,10,12,10.50
2013,04,16,10,13,10.60
2013,04,16,10,14,10.60
2013,04,16,10,15,10.70
2013,04,16,10,16,10.70
2013,04,16,10,17,10.70
2013,04,16,10,18,10.70
2013,04,16,10,19,10.70
2013,04,16,10,20,10.70
2013,04,16,10,21,10.70
2013,04,16,10,22,10.70
2013,04,16,10,23,10.80
2013,04,16,10,24,10.80
2013,04,16,10,25,10.80
2013,04,16,10,26,10.80
2013,04,16,10,27,10.80
2013,04,16,10,28,10.80
2013,04,16,10,29,10.80
2013,04,16,10,30,10.80
2013,04,16,10,31,10.90
2013,04,16,10,32,10.90
2013,04,16,10,33,11.00
2013,04,16,10,34,11.00
2013,04,16,10,35,11.10
2013,04,16,10,36,11.20
2013,04,16,10,37,11.30
2013,04,16,10,38,11.30
2013,04,16,10,39,11.40
2013,04,16,10,40,11.40
2013,04,16,10,41,11.40
2013,04,16,10,42,11.40
2013,04,16,10,43,11.40
2013,04,16,10,44,11.40
2013,04,16,10,45,11.40
2013,04,16,10,46,11.40
2013,04,16,10,47,11.40
2013,04,16,10,48,11.40
2013,04,16,10,49,11.40
2013,04,16,10,50,11.40
2013,04,16,10,51,11.40
2013,04,16,10,52,11.30
2013,04,16,10,53,11.30
2013,04,16,10,54,11.30
2013,04,16,10,55,11.30
2013,04,16,10,56,11.20
2013,04,16,10,57,11.10
2013,04,16,10,58,11.00
2013,04,16,10,59,10.90
2013,04,16,11,00,10.90
2013,04,16,11,01,11.10
2013,04,16,11,02,11.20
2013,04,16,11,03,11.30
2013,04,16,11,04,11.40
2013,04,16,11,05,11.40
2013,04,16,11,06,11.40
2013,04,16,11,07,11.40
2013,04,16,11,08,11.30
2013,04,16,11,09,11.30
2013,04,16,11,10,11.40
2013,04,16,11,11,11.40
2013,04,16,11,12,11.40
2013,04,16,11,13,11.40
2013,04,16,11,14,11.40
2013,04,16,11,15,11.40
2013,04,16,11,16,11.50
2013,04,16,11,17,11.50
2013,04,16,11,18,11.60
2013,04,16,11,19,11.50
2013,04,16,11,20,11.50
2013,04,16,11,21,11.50
2013,04,16,11,22,11.60
2013,04,16,11,23,11.60
2013,04,16,11,24,11.60
2013,04,16,11,25,11.70
2013,04,16,11,26,11.70
2013,04,16,11,27,11.70
2013,04,16,11,28,11.80
2013,04,16,11,29,11.80
2013,04,16,11,30,11.90
2013,04,16,11,31,11.80
2013,04,16,11,32,11.80
2013,04,16,11,33,11.70
2013,04,16,11,34,11.70
2013,04,16,11,35,11.70
2013,04,16,11,36,11.70
2013,04,16,11,37,11.80
2013,04,16,11,38,11.90
2013,04,16,11,39,11.90
2013,04,16,11,40,12.00
2013,04,16,11,41,12.00
2013,04,16,11,42,11.90
2013,04,16,11,43,11.90
2013,04,16,11,44,11.90
2013,04,16,11,45,11.90
2013,04,16,11,46,11.80
2013,04,16,11,47,11.90
2013,04,16,11,48,11.90
2013,04,16,11,49,12.00
2013,04,16,11,50,12.00
2013,04,16,11,51,12.00
2013,04,16,11,52,12.00
2013,04,16,11,53,11.90
2013,04,16,11,54,11.90
2013,04,16,11,55,11.90
2013,04,16,11,56,11.90
2013,04,16,11,57,11.80
2013,04,16,11,58,11.80
2013,04,16,11,59,11.90
2013,04,16,12,00,11.90
2013,04,16,12,01,11.90
2013,04,16,12,02,11.90
2013,04,16,12,03,11.90
2013,04,16,12,04,12.00
2013,04,16,12,05,12.10
2013,04,16,12,06,12.20
2013,04,16,12,07,12.30
2013,04,16,12,08,12.40
2013,04,16,12,09,12.40
2013,04,16,12,10,12.40
2013,04,16,12,11,12.40
2013,04,16,12,12,12.30
2013,04,16,12,13,12.30
2013,04,16,12,14,12.30
2013,04,16,12,15,12.30
2013,04,16,12,16,12.30
2013,04,16,12,17,12.40
2013,04,16,12,18,12.40
2013,04,16,12,19,12.50
2013,04,16,12,20,12.60
2013,04,16,12,21,12.50
2013,04,16,12,22,12.50
2013,04,16,12,23,12.50
2013,04,16,12,24,12.50
2013,04,16,12,25,12.60
2013,04,16,12,26,12.60
2013,04,16,12,27,12.60
2013,04,16,12,28,12.60
2013,04,16,12,29,12.70
2013,04,16,12,30,12.80
2013,04,16,12,31,12.80
2013,04,16,12,32,12.80
2013,04,16,12,33,12.80
2013,04,16,12,34,12.80
2013,04,16,12,35,12.80
2013,04,16,12,36,12.90
2013,04,16,12,37,13.00
2013,04,16,12,38,13.00
2013,04,16,12,39,13.00
2013,04,16,12,40,13.00
2013,04,16,12,41,13.00
2013,04,16,12,42,13.00
2013,04,16,12,43,12.90
2013,04,16,12,44,12.80
2013,04,16,12,45,12.70
2013,04,16,12,46,12.70
2013,04,16,12,47,12.80
2013,04,16,12,48,12.90
2013,04,16,12,49,13.00
2013,04,16,12,50,13.10
2013,04,16,12,51,13.20
2013,04,16,12,52,13.20
2013,04,16,12,53,13.20
2013,04,16,12,54,13.10
2013,04,16,12,55,13.10
2013,04,16,12,56,13.10
2013,04,16,12,57,13.10
2013,04,16,12,58,13.20
2013,04,16,12,59,13.20
2013,04,16,13,00,13.20
2013,04,16,13,01,13.20
2013,04,16,13,02,13.20
2013,04,16,13,03,13.20
2013,04,16,13,04,13.20
2013,04,16,13,05,13.30
2013,04,16,13,06,13.30
2013,04,16,13,07,13.30
2013,04,16,13,08,13.40
2013,04,16,13,09,13.40
2013,04,16,13,10,13.40
2013,04,16,13,11,13.40
2013,04,16,13,12,13.40
2013,04,16,13,13,13.40
2013,04,16,13,14,13.40
2013,04,16,13,15,13.40
2013,04,16,13,16,13.40
2013,04,16,13,17,13.40
2013,04,16,13,18,13.40
2013,04,16,13,19,13.50
2013,04,16,13,20,13.50
2013,04,16,13,21,13.60
2013,04,16,13,22,13.70
2013,04,16,13,23,13.80
2013,04,16,13,24,13.80
2013,04,16,13,25,13.90
2013,04,16,13,26,13.90
2013,04,16,13,27,13.90
2013,04,16,13,28,13.90
2013,04,16,13,29,13.90
2013,04,16,13,30,14.00
2013,04,16,13,31,14.00
2013,04,16,13,32,14.00
2013,04,16,13,33,14.00
2013,04,16,13,34,14.00
2013,04,16,13,35,14.00
2013,04,16,13,36,14.10
2013,04,16,13,37,14.10
2013,04,16,13,38,14.10
2013,04,16,13,39,14.10
2013,04,16,13,40,14.10
2013,04,16,13,41,14.10
2013,04,16,13,42,14.00
2013,04,16,13,43,13.90
2013,04,16,13,44,13.90
2013,04,16,13,45,13.80
2013,04,16,13,46,13.80
2013,04,16,13,47,13.80
2013,04,16,13,48,13.70
2013,04,16,13,49,13.60
2013,04,16,13,50,13.60
2013,04,16,13,51,13.60
2013,04,16,13,52,13.60
2013,04,16,13,53,13.60
2013,04,16,13,54,13.60
2013,04,16,13,55,13.60
2013,04,16,13,56,13.70
2013,04,16,13,57,13.80
2013,04,16,13,58,13.80
2013,04,16,13,59,13.90
2013,04,16,14,00,14.00
2013,04,16,14,01,14.10
2013,04,16,14,02,14.20
2013,04,16,14,03,14.20
2013,04,16,14,04,14.20
2013,04,16,14,05,14.30
2013,04,16,14,06,14.30
2013,04,16,14,07,14.30
2013,04,16,14,08,14.30
2013,04,16,14,09,14.30
2013,04,16,14,10,14.30
2013,04,16,14,11,14.30
2013,04,16,14,12,14.30
2013,04,16,14,13,14.20
2013,04,16,14,14,14.20
2013,04,16,14,15,14.20
2013,04,16,14,16,14.30
2013,04,16,14,17,14.30
2013,04,16,14,18,14.40
2013,04,16,14,19,14.40
2013,04,16,14,20,14.40
2013,04,16,14,21,14.40
2013,04,16,14,22,14.40
2013,04,16,14,23,14.40
2013,04,16,14,24,14.40
2013,04,16,14,25,14.40
2013,04,16,14,26,14.40
2013,04,16,14,27,14.30
2013,04,16,14,28,14.30
2013,04,16,14,29,14.30
2013,04,16,14,30,14.30
2013,04,16,14,31,14.30
2013,04,16,14,32,14.30
2013,04,16,14,33,14.30
2013,04,16,14,34,14.30
2013,04,16,14,35,14.30
2013,04,16,14,36,14.40
2013,04,16,14,37,14.40
2013,04,16,14,38,14.50
2013,04,16,14,39,14.40
2013,04,16,14,40,14.40
2013,04,16,14,41,14.30
2013,04,16,14,42,14.30
2013,04,16,14,43,14.30
2013,04,16,14,44,14.30
2013,04,16,14,45,14.30
2013,04,16,14,46,14.40
2013,04,16,14,47,14.30
2013,04,16,14,48,14.30
2013,04,16,14,49,14.30
2013,04,16,14,50,14.30
2013,04,16,14,51,14.40
2013,04,16,14,52,14.40
2013,04,16,14,53,14.50
2013,04,16,14,54,14.50
2013,04,16,14,55,14.40
2013,04,16,14,56,14.50
2013,04,16,14,57,14.50
2013,04,16,14,58,14.60
2013,04,16,14,59,14.60
2013,04,16,15,00,14.50
2013,04,16,15,01,14.40
2013,04,16,15,02,14.30
2013,04,16,15,03,14.30
2013,04,16,15,04,14.20
2013,04,16,15,05,14.30
2013,04,16,15,06,14.30
2013,04,16,15,07,14.40
2013,04,16,15,08,14.50
2013,04,16,15,09,14.60
2013,04,16,15,10,14.70
2013,04,16,15,11,14.70
2013,04,16,15,12,14.70
2013,04,16,15,13,14.70
2013,04,16,15,14,14.70
2013,04,16,15,15,14.60
2013,04,16,15,16,14.60
2013,04,16,15,17,14.50
2013,04,16,15,18,14.40
2013,04,16,15,19,14.40
2013,04,16,15,20,14.40
2013,04,16,15,21,14.40
2013,04,16,15,22,14.40
2013,04,16,15,23,14.50
2013,04,16,15,24,14.60
2013,04,16,15,25,14.70
2013,04,16,15,26,14.70
2013,04,16,15,27,14.70
2013,04,16,15,28,14.80
2013,04,16,15,29,14.80
2013,04,16,15,30,14.70
2013,04,16,15,31,14.70
2013,04,16,15,32,14.70
2013,04,16,15,33,14.60
2013,04,16,15,34,14.60
2013,04,16,15,35,14.60
2013,04,16,15,36,14.70
2013,04,16,15,37,14.70
2013,04,16,15,38,14.80
2013,04,16,15,39,14.90
2013,04,16,15,40,14.90
2013,04,16,15,41,15.00
2013,04,16,15,42,15.00
2013,04,16,15,43,15.00
2013,04,16,15,44,15.00
2013,04,16,15,45,15.00
2013,04,16,15,46,15.00
2013,04,16,15,47,15.10
2013,04,16,15,48,15.10
2013,04,16,15,49,15.30
2013,04,16,15,50,15.40
2013,04,16,15,51,15.40
2013,04,16,15,52,15.40
2013,04,16,15,53,15.40
2013,04,16,15,54,15.40
2013,04,16,15,55,15.30
2013,04,16,15,56,15.30
2013,04,16,15,57,15.30
2013,04,16,15,58,15.30
2013,04,16,15,59,15.30
2013,04,16,16,00,15.30
2013,04,16,16,01,15.30
2013,04,16,16,02,15.30
2013,04,16,16,03,15.30
2013,04,16,16,04,15.20
2013,04,16,16,05,15.20
2013,04,16,16,06,15.30
2013,04,16,16,07,15.40
2013,04,16,16,08,15.50
2013,04,16,16,09,15.60
2013,04,16,16,10,15.50
2013,04,16,16,11,15.50
2013,04,16,16,12,15.50
2013,04,16,16,13,15.50
2013,04,16,16,14,15.60
2013,04,16,16,15,15.60
2013,04,16,16,16,15.60
2013,04,16,16,17,15.60
2013,04,16,16,18,15.70
2013,04,16,16,19,15.70
2013,04,16,16,20,15.80
2013,04,16,16,21,15.80
2013,04,16,16,22,15.80
2013,04,16,16,23,15.70
2013,04,16,16,24,15.70
2013,04,16,16,25,15.60
2013,04,16,16,26,15.40
2013,04,16,16,27,15.30
2013,04,16,16,28,15.20
2013,04,16,16,29,15.20
2013,04,16,16,30,15.20
2013,04,16,16,31,15.20
2013,04,16,16,32,15.20
2013,04,16,16,33,15.30
2013,04,16,16,34,15.30
2013,04,16,16,35,15.30
2013,04,16,16,36,15.30
2013,04,16,16,37,15.30
2013,04,16,16,38,15.30
2013,04,16,16,39,15.30
2013,04,16,16,40,15.30
2013,04,16,16,41,15.40
2013,04,16,16,42,15.50
2013,04,16,16,43,15.60
2013,04,16,16,44,15.70
2013,04,16,16,45,15.60
2013,04,16,16,46,15.60
2013,04,16,16,47,15.60
2013,04,16,16,48,15.60
2013,04,16,16,49,15.70
2013,04,16,16,50,15.80
2013,04,16,16,51,15.90
2013,04,16,16,52,16.00
2013,04,16,16,53,16.00
2013,04,16,16,54,16.00
2013,04,16,16,55,16.10
2013,04,16,16,56,16.10
2013,04,16,16,57,16.00
2013,04,16,16,58,15.90
2013,04,16,16,59,15.90
2013,04,16,17,00,15.90
2013,04,16,17,01,15.90
2013,04,16,17,02,16.00
2013,04,16,17,03,16.00
2013,04,16,17,04,16.10
2013,04,16,17,05,16.10
2013,04,16,17,06,16.10
2013,04,16,17,07,16.10
2013,04,16,17,08,16.20
2013,04,16,17,09,16.10
2013,04,16,17,10,16.00
2013,04,16,17,11,16.00
2013,04,16,17,12,15.90
2013,04,16,17,13,15.90
2013,04,16,17,14,15.90
2013,04,16,17,15,15.90
2013,04,16,17,16,15.90
2013,04,16,17,17,15.90
2013,04,16,17,18,15.90
2013,04,16,17,19,15.80
2013,04,16,17,20,15.80
2013,04,16,17,21,15.80
2013,04,16,17,22,15.70
2013,04,16,17,23,15.70
2013,04,16,17,24,15.70
2013,04,16,17,25,15.60
2013,04,16,17,26,15.60
2013,04,16,17,27,15.60
2013,04,16,17,28,15.60
2013,04,16,17,29,15.60
2013,04,16,17,30,15.60
2013,04,16,17,31,15.60
2013,04,16,17,32,15.60
2013,04,16,17,33,15.60
2013,04,16,17,34,15.60
2013,04,16,17,35,15.60
2013,04,16,17,36,15.60
2013,04,16,17,37,15.50
2013,04,16,17,38,15.40
2013,04,16,17,39,15.40
2013,04,16,17,40,15.40
2013,04,16,17,41,15.40
2013,04,16,17,42,15.50
2013,04,16,17,43,15.60
2013,04,16,17,44,15.60
2013,04,16,17,45,15.60